Вернуться в каталог

STARLINK-36543

АктивенСвязьVLEO
NORAD 67515·PAYLOAD·🇺🇸 United States

Запущен Jan 18, 2026 с Cape Canaveral Space Force Station

Loading…

Ближайшие Пролёты (ближайшие 24 часа)

TLE

СвежийSource: CelesTrak SupGP

Эпоха: Sep 14, 2026, 21:15 UTC

1 67515C 26012Y   26257.88590278 -.00021132  00000+0 -76541-3 0  2577
2 67515  43.0022 325.9239 0001557 267.9426 211.8236 15.27587793    12

Отслеживайте STARLINK-36543 в реальном времени с AllMySat

Download on the App Store